Regional Weather Roundup
Issued by NWS Sioux Falls, SD

Home | Current Version | Previous Version | Graphics & Text | Print | Product List | Glossary Off
Versions: 1 2 3 4 5 6 7 8 9 10 11 12 13 14 15 16 17 18 19 20 21 22 23 24 25 26 27 28 29 30 31 32 33 34 35 36 37 38 39 40 41 42 43 44 45 46 47 48 49 50

678
ASUS43 KFSD 300310
RWRFSD

WEATHER ROUNDUP FOR SE SOUTH DAKOTA/SW MINNESOTA/NW IOWA
NATIONAL WEATHER SERVICE SIOUX FALLS SD
1000 PM CDT FRI APR 29 2016

NOTE: "FAIR" INDICATES FEW OR NO CLOUDS BELOW 12,000 FEET WITH NO
SIGNIFICANT WEATHER AND OR OBSTRUCTIONS TO VISIBILITY.


SDZ038>040-050-052>070-300400-
SOUTHEAST SOUTH DAKOTA

CITY           SKY/WX    TMP DP  RH WIND       PRES   REMARKS
BROOKINGS      PTCLDY    46  39  76 E8        30.06S
CHAMBERLAIN    CLOUDY    47  44  91 CALM      30.07S
HURON          CLOUDY    45  41  86 CALM      30.07R
MADISON        FAIR      45  45 100 NE10      30.06R
MITCHELL       CLOUDY    48  41  76 NE8       30.07R
SIOUX FALLS    CLOUDY    44  39  82 E7        30.05R
WINNER         CLOUDY    44  38  79 E10       30.04F
YANKTON        CLOUDY    45  39  81 E7        30.03S
$$

MNZ071-072-080-081-089-090-097-098-300400-
SOUTHWEST MINNESOTA

CITY           SKY/WX    TMP DP  RH WIND       PRES   REMARKS
FAIRMONT       CLOUDY    45  36  70 E6        30.07S
JACKSON        CLOUDY    45  37  76 E9        30.07S
LUVERNE        MOCLDY    45  37  76 E5        30.06R
MARSHALL       PTCLDY    46  39  76 NE8       30.09S
MONTEVIDEO     CLOUDY    46  39  76 CALM      30.11S
PIPESTONE      MOCLDY    46  39  76 E7        30.05S
REDWOOD FALLS  CLOUDY    49  37  63 E3        30.09S
TRACY          CLOUDY    47  41  82 NE6       30.08S
WINDOM         CLOUDY    46  41  81 CALM      30.08R
WORTHINGTON    CLOUDY    44  41  89 E9        30.07R
$$

IAZ001>003-012>014-020>022-031-032-NEZ013-014-SDZ071-300400-
NORTHWEST IOWA

CITY           SKY/WX    TMP DP  RH WIND       PRES   REMARKS
CHEROKEE       CLOUDY    45  42  88 E10       30.04R
DENISON        CLOUDY    46  41  81 E15G23    29.98S
ESTHERVILLE    CLOUDY    43  40  89 E9        30.06S
LE MARS        CLOUDY    46  41  81 E8        30.05R
ORANGE CITY    CLOUDY    45  39  81 E9        30.04S
SHELDON        CLOUDY    45  41  87 E13       30.04R
SIOUX CITY     CLOUDY    47  39  74 E10       30.02S
SPENCER        MOCLDY    44  38  79 E9        30.06S
STORM LAKE     CLOUDY    45  41  87 E16       30.04R
$$

ABBREVIATIONS USED IN REMARKS
   TC - TEMPERATURE IN CELSIUS
  WCI - WIND CHILL INDEX
   HX - HEAT INDEX
  VSB - VISIBILITY





USA.gov is the U.S. government's official web portal to all federal, state and local government web resources and services.